Time,TemperatureF,DewpointF,PressureIn,WindDirection,WindDirectionDegrees,WindSpeedMPH,WindSpeedGustMPH,Humidity,HourlyPrecipIn,Conditions,Clouds,dailyrainin,SoftwareType,DateUTC
2013-03-07 00:01:00,31.4,29.9,30.31,ESE,110,1.0,3.0,94,0.00,,---,0.00,VWS V14.01,2013-03-07 05:01:00,
2013-03-07 00:10:00,31.3,29.8,30.32,ESE,109,1.0,2.0,94,0.00,,---,0.00,VWS V14.01,2013-03-07 05:10:00,
2013-03-07 00:20:00,31.3,29.8,30.32,ESE,109,0.0,2.0,94,0.00,,---,0.00,VWS V14.01,2013-03-07 05:20:00,
2013-03-07 00:30:00,31.3,29.8,30.32,ESE,111,0.0,2.0,94,0.00,,---,0.00,VWS V14.01,2013-03-07 05:30:00,
2013-03-07 00:40:00,31.3,29.8,30.32,ESE,109,1.0,2.0,94,0.00,,---,0.00,VWS V14.01,2013-03-07 05:40:00,
2013-03-07 00:50:00,31.3,29.8,30.32,ESE,109,0.0,2.0,94,0.00,,---,0.00,VWS V14.01,2013-03-07 05:50:00,
2013-03-07 01:00:00,31.2,29.7,30.32,ESE,109,0.0,2.0,94,0.00,,---,0.00,VWS V14.01,2013-03-07 06:00:00,
2013-03-07 01:10:00,31.2,29.7,30.32,ESE,109,0.0,2.0,94,0.00,,---,0.00,VWS V14.01,2013-03-07 06:10:00,
2013-03-07 01:20:00,31.2,29.7,30.32,ESE,109,0.0,0.0,94,0.00,,---,0.00,VWS V14.01,2013-03-07 06:20:00,
2013-03-07 01:30:00,31.1,29.6,30.32,ESE,109,0.0,0.0,94,0.00,,---,0.00,VWS V14.01,2013-03-07 06:30:00,
2013-03-07 01:40:00,31.1,29.6,30.32,ESE,109,0.0,0.0,94,0.00,,---,0.00,VWS V14.01,2013-03-07 06:40:00,
2013-03-07 01:50:00,31.1,29.6,30.32,ESE,109,0.0,2.0,94,0.00,,---,0.00,VWS V14.01,2013-03-07 06:50:00,
2013-03-07 02:00:00,31.1,29.6,30.33,ESE,108,0.0,2.0,94,0.00,,---,0.00,VWS V14.01,2013-03-07 07:00:00,
2013-03-07 02:10:00,31.1,29.6,30.33,ESE,108,0.0,0.0,94,0.00,,---,0.00,VWS V14.01,2013-03-07 07:10:00,
2013-03-07 02:20:00,31.1,29.6,30.33,ESE,108,0.0,1.0,94,0.00,,---,0.00,VWS V14.01,2013-03-07 07:20:00,
2013-03-07 02:30:00,31.0,29.5,30.33,ESE,108,0.0,1.0,94,0.00,,---,0.00,VWS V14.01,2013-03-07 07:30:00,
2013-03-07 02:40:00,31.0,29.5,30.33,ESE,108,0.0,1.0,94,0.00,,---,0.00,VWS V14.01,2013-03-07 07:40:00,
2013-03-07 02:50:00,31.0,29.5,30.33,ESE,108,0.0,1.0,94,0.00,,---,0.00,VWS V14.01,2013-03-07 07:50:00,
2013-03-07 03:00:00,31.0,29.5,30.33,ESE,108,0.0,2.0,94,0.00,,---,0.00,VWS V14.01,2013-03-07 08:00:00,
2013-03-07 03:10:00,31.0,29.5,30.33,ESE,108,0.0,1.0,94,0.00,,---,0.00,VWS V14.01,2013-03-07 08:10:00,
2013-03-07 03:20:00,31.0,29.5,30.33,ESE,108,0.0,2.0,94,0.00,,---,0.00,VWS V14.01,2013-03-07 08:20:00,
2013-03-07 03:30:00,30.9,29.4,30.33,ESE,111,1.0,3.0,94,0.00,,---,0.00,VWS V14.01,2013-03-07 08:30:00,
2013-03-07 03:40:00,30.9,29.4,30.33,ESE,111,1.0,3.0,94,0.00,,---,0.00,VWS V14.01,2013-03-07 08:40:00,
2013-03-07 03:50:00,31.0,29.5,30.33,ESE,111,1.0,3.0,94,0.00,,---,0.00,VWS V14.01,2013-03-07 08:50:00,
2013-03-07 04:00:00,30.9,29.4,30.33,ESE,111,0.0,2.0,94,0.00,,---,0.00,VWS V14.01,2013-03-07 09:00:00,
2013-03-07 04:10:00,30.9,29.4,30.34,ESE,111,0.0,2.0,94,0.00,,---,0.00,VWS V14.01,2013-03-07 09:10:00,
2013-03-07 04:20:00,30.9,29.4,30.35,ESE,111,1.0,2.0,94,0.00,,---,0.00,VWS V14.01,2013-03-07 09:20:00,
2013-03-07 04:30:00,31.0,29.5,30.35,ESE,111,2.0,3.0,94,0.00,,---,0.00,VWS V14.01,2013-03-07 09:30:00,
2013-03-07 04:40:00,31.0,29.5,30.35,ESE,111,1.0,2.0,94,0.00,,---,0.00,VWS V14.01,2013-03-07 09:40:00,
2013-03-07 04:50:00,30.9,29.4,30.35,NNE,30,0.0,3.0,94,0.00,,---,0.00,VWS V14.01,2013-03-07 09:50:00,
2013-03-07 05:00:00,30.9,29.4,30.35,ESE,110,0.0,2.0,94,0.00,,---,0.00,VWS V14.01,2013-03-07 10:00:00,
2013-03-07 05:10:00,30.9,29.4,30.35,ESE,105,1.0,2.0,94,0.00,,---,0.00,VWS V14.01,2013-03-07 10:10:00,
2013-03-07 05:20:00,30.9,29.4,30.35,East,96,0.0,2.0,94,0.00,,---,0.00,VWS V14.01,2013-03-07 10:20:00,
2013-03-07 05:30:00,30.9,29.4,30.35,East,96,0.0,1.0,94,0.00,,---,0.00,VWS V14.01,2013-03-07 10:30:00,
2013-03-07 05:40:00,30.9,29.4,30.36,East,96,0.0,0.0,94,0.00,,---,0.00,VWS V14.01,2013-03-07 10:40:00,
2013-03-07 05:50:00,30.9,29.4,30.36,ESE,111,1.0,2.0,94,0.00,,---,0.00,VWS V14.01,2013-03-07 10:50:00,
2013-03-07 06:00:00,30.9,29.4,30.37,ESE,111,0.0,1.0,94,0.00,,---,0.00,VWS V14.01,2013-03-07 11:00:00,
2013-03-07 06:10:00,30.8,29.3,30.37,ESE,111,0.0,0.0,94,0.00,,---,0.00,VWS V14.01,2013-03-07 11:10:00,
2013-03-07 06:20:00,30.8,29.3,30.38,ESE,111,0.0,0.0,94,0.00,,---,0.00,VWS V14.01,2013-03-07 11:20:00,
2013-03-07 06:30:00,30.8,29.5,30.38,ESE,111,1.0,1.0,95,0.00,,---,0.00,VWS V14.01,2013-03-07 11:30:00,
2013-03-07 06:40:00,30.8,29.5,30.38,ESE,111,0.0,2.0,95,0.00,,---,0.00,VWS V14.01,2013-03-07 11:40:00,
2013-03-07 06:50:00,30.9,29.4,30.38,ESE,111,1.0,1.0,94,0.00,,---,0.00,VWS V14.01,2013-03-07 11:50:00,
2013-03-07 07:00:00,30.9,29.6,30.39,ESE,111,0.0,4.0,95,0.00,,---,0.00,VWS V14.01,2013-03-07 12:00:00,
2013-03-07 07:10:00,31.0,29.5,30.39,ESE,111,0.0,1.0,94,0.00,,---,0.00,VWS V14.01,2013-03-07 12:10:00,
2013-03-07 07:20:00,31.0,29.5,30.39,ESE,111,1.0,2.0,94,0.00,,---,0.00,VWS V14.01,2013-03-07 12:20:00,
2013-03-07 07:30:00,31.0,29.5,30.39,ESE,111,0.0,4.0,94,0.00,,---,0.00,VWS V14.01,2013-03-07 12:30:00,
2013-03-07 07:40:00,31.1,29.6,30.39,ESE,111,2.0,3.0,94,0.00,,---,0.00,VWS V14.01,2013-03-07 12:40:00,
2013-03-07 07:50:00,31.1,29.6,30.40,ESE,111,0.0,3.0,94,0.00,,---,0.00,VWS V14.01,2013-03-07 12:50:00,
2013-03-07 08:00:00,31.1,29.6,30.40,ESE,111,0.0,2.0,94,0.00,,---,0.00,VWS V14.01,2013-03-07 13:00:00,
2013-03-07 08:10:00,31.2,29.7,30.41,ESE,111,0.0,3.0,94,0.00,,---,0.00,VWS V14.01,2013-03-07 13:10:00,
2013-03-07 08:20:00,31.2,29.7,30.41,ESE,111,0.0,1.0,94,0.00,,---,0.00,VWS V14.01,2013-03-07 13:20:00,
2013-03-07 08:30:00,31.3,29.8,30.41,ESE,108,0.0,1.0,94,0.00,,---,0.00,VWS V14.01,2013-03-07 13:30:00,
2013-03-07 08:40:00,31.4,29.6,30.41,ESE,111,0.0,2.0,93,0.00,,---,0.00,VWS V14.01,2013-03-07 13:40:00,
2013-03-07 08:50:00,31.6,29.8,30.41,ESE,111,0.0,2.0,93,0.00,,---,0.00,VWS V14.01,2013-03-07 13:50:00,
2013-03-07 09:00:00,31.8,30.0,30.41,ESE,111,1.0,3.0,93,0.00,,---,0.00,VWS V14.01,2013-03-07 14:00:00,
2013-03-07 09:10:00,31.9,30.1,30.42,ESE,111,2.0,5.0,93,0.00,,---,0.00,VWS V14.01,2013-03-07 14:10:00,
2013-03-07 09:20:00,32.0,30.2,30.42,NNW,348,2.0,4.0,93,0.00,,---,0.00,VWS V14.01,2013-03-07 14:20:00,
2013-03-07 09:30:00,32.2,30.1,30.42,West,270,2.0,4.0,92,0.00,,---,0.00,VWS V14.01,2013-03-07 14:30:00,
2013-03-07 09:40:00,32.3,30.2,30.42,West,270,2.0,4.0,92,0.00,,---,0.00,VWS V14.01,2013-03-07 14:40:00,
2013-03-07 09:50:00,32.4,30.3,30.42,WSW,255,0.0,4.0,92,0.00,,---,0.00,VWS V14.01,2013-03-07 14:50:00,
2013-03-07 10:00:00,32.8,30.7,30.42,WSW,255,0.0,1.0,92,0.00,,---,0.00,VWS V14.01,2013-03-07 15:00:00,
2013-03-07 10:11:00,33.1,30.8,30.43,WNW,296,1.0,2.0,91,0.00,,---,0.00,VWS V14.01,2013-03-07 15:11:00,
2013-03-07 10:20:00,33.3,31.0,30.43,WNW,289,0.0,2.0,91,0.00,,---,0.00,VWS V14.01,2013-03-07 15:20:00,
2013-03-07 10:30:00,33.4,30.8,30.42,West,271,3.0,4.0,90,0.00,,---,0.00,VWS V14.01,2013-03-07 15:30:00,
2013-03-07 10:40:00,33.4,30.8,30.43,West,269,1.0,5.0,90,0.00,,---,0.00,VWS V14.01,2013-03-07 15:40:00,
2013-03-07 10:50:00,33.6,31.3,30.43,West,268,0.0,3.0,91,0.01,,---,0.01,VWS V14.01,2013-03-07 15:50:00,
2013-03-07 11:00:00,34.1,31.5,30.43,West,268,0.0,1.0,90,0.01,,---,0.01,VWS V14.01,2013-03-07 16:00:00,
2013-03-07 11:10:00,34.4,31.5,30.43,West,268,1.0,2.0,89,0.02,,---,0.02,VWS V14.01,2013-03-07 16:10:00,
2013-03-07 11:20:00,34.5,31.3,30.43,WNW,292,0.0,4.0,88,0.02,,---,0.02,VWS V14.01,2013-03-07 16:20:00,
2013-03-07 11:30:00,35.0,32.1,30.43,ESE,111,1.0,3.0,89,0.03,,---,0.03,VWS V14.01,2013-03-07 16:30:00,
2013-03-07 11:40:00,35.0,31.5,30.43,West,263,2.0,3.0,87,0.04,,---,0.04,VWS V14.01,2013-03-07 16:40:00,
2013-03-07 11:50:00,35.1,31.6,30.43,WSW,250,2.0,3.0,87,0.04,,---,0.04,VWS V14.01,2013-03-07 16:50:00,
2013-03-07 12:00:00,35.3,31.8,30.43,WSW,243,0.0,2.0,87,0.04,,---,0.05,VWS V14.01,2013-03-07 17:00:00,
2013-03-07 12:10:00,35.9,32.1,30.43,ENE,77,1.0,2.0,86,0.05,,---,0.06,VWS V14.01,2013-03-07 17:10:00,
2013-03-07 12:20:00,36.1,32.0,30.43,West,266,0.0,3.0,85,0.05,,---,0.07,VWS V14.01,2013-03-07 17:20:00,
2013-03-07 12:30:00,36.2,32.4,30.43,SE,138,0.0,5.0,86,0.06,,---,0.08,VWS V14.01,2013-03-07 17:30:00,
2013-03-07 12:40:00,36.8,33.0,30.42,SE,138,0.0,1.0,86,0.06,,---,0.09,VWS V14.01,2013-03-07 17:40:00,
2013-03-07 12:50:00,37.4,32.7,30.42,WNW,288,0.0,2.0,83,0.06,,---,0.10,VWS V14.01,2013-03-07 17:50:00,
2013-03-07 13:00:00,37.3,32.0,30.42,WSW,239,0.0,5.0,81,0.07,,---,0.11,VWS V14.01,2013-03-07 18:00:00,
2013-03-07 13:10:00,37.5,32.8,30.42,ESE,111,1.0,2.0,83,0.07,,---,0.12,VWS V14.01,2013-03-07 18:10:00,
2013-03-07 13:20:00,38.0,33.0,30.41,ESE,111,0.0,3.0,82,0.08,,---,0.14,VWS V14.01,2013-03-07 18:20:00,
2013-03-07 13:30:00,38.5,32.6,30.41,WSW,254,2.0,4.0,79,0.09,,---,0.16,VWS V14.01,2013-03-07 18:30:00,
2013-03-07 13:40:00,38.4,32.5,30.41,NE,38,0.0,4.0,79,0.09,,---,0.17,VWS V14.01,2013-03-07 18:40:00,
2013-03-07 13:50:00,38.6,32.7,30.40,WNW,282,0.0,3.0,79,0.10,,---,0.19,VWS V14.01,2013-03-07 18:50:00,
2013-03-07 14:00:00,38.7,32.4,30.40,WSW,254,3.0,3.0,78,0.11,,---,0.21,VWS V14.01,2013-03-07 19:00:00,
2013-03-07 14:10:00,38.6,32.0,30.40,NNW,342,1.0,4.0,77,0.11,,---,0.22,VWS V14.01,2013-03-07 19:10:00,
2013-03-07 14:20:00,38.5,31.6,30.40,West,266,0.0,4.0,76,0.11,,---,0.23,VWS V14.01,2013-03-07 19:20:00,
2013-03-07 14:31:00,38.3,31.4,30.40,NW,305,2.0,3.0,76,0.11,,---,0.25,VWS V14.01,2013-03-07 19:31:00,
2013-03-07 14:40:00,38.1,31.2,30.40,ESE,120,1.0,4.0,76,0.10,,---,0.26,VWS V14.01,2013-03-07 19:40:00,
2013-03-07 14:50:00,38.2,31.6,30.39,West,269,0.0,4.0,77,0.10,,---,0.27,VWS V14.01,2013-03-07 19:50:00,
2013-03-07 15:00:00,38.2,31.6,30.39,West,269,1.0,2.0,77,0.09,,---,0.28,VWS V14.01,2013-03-07 20:00:00,
2013-03-07 15:10:00,37.9,31.0,30.39,West,263,0.0,4.0,76,0.07,,---,0.28,VWS V14.01,2013-03-07 20:10:00,
2013-03-07 15:20:00,37.7,31.5,30.40,WSW,244,0.0,2.0,78,0.07,,---,0.29,VWS V14.01,2013-03-07 20:20:00,
2013-03-07 15:30:00,37.7,31.5,30.40,SE,135,0.0,3.0,78,0.06,,---,0.29,VWS V14.01,2013-03-07 20:30:00,
2013-03-07 15:40:00,37.6,31.4,30.41,West,263,0.0,4.0,78,0.05,,---,0.30,VWS V14.01,2013-03-07 20:40:00,
2013-03-07 15:50:00,37.8,31.2,30.40,SSW,197,0.0,2.0,77,0.04,,---,0.30,VWS V14.01,2013-03-07 20:50:00,
2013-03-07 16:00:00,38.0,31.1,30.41,WSW,252,0.0,3.0,76,0.03,,---,0.30,VWS V14.01,2013-03-07 21:00:00,
2013-03-07 16:10:00,38.0,31.1,30.41,SSW,197,0.0,2.0,76,0.03,,---,0.31,VWS V14.01,2013-03-07 21:10:00,
2013-03-07 16:20:00,37.9,32.0,30.41,SSW,197,0.0,1.0,79,0.03,,---,0.31,VWS V14.01,2013-03-07 21:20:00,
2013-03-07 16:30:00,37.7,31.1,30.42,WSW,243,0.0,2.0,77,0.02,,---,0.31,VWS V14.01,2013-03-07 21:30:00,
2013-03-07 16:50:00,37.3,30.1,30.42,ESE,116,1.0,2.0,75,0.02,,---,0.32,VWS V14.01,2013-03-07 21:50:00,
2013-03-07 17:00:00,37.3,29.8,30.42,ESE,121,0.0,2.0,74,0.02,,---,0.32,VWS V14.01,2013-03-07 22:00:00,
2013-03-07 17:10:00,37.4,30.5,30.42,ESE,121,0.0,0.0,76,0.02,,---,0.32,VWS V14.01,2013-03-07 22:10:00,
2013-03-07 17:20:00,37.3,29.5,30.42,West,271,0.0,2.0,73,0.01,,---,0.32,VWS V14.01,2013-03-07 22:20:00,
2013-03-07 17:30:00,37.2,30.0,30.42,WSW,258,0.0,3.0,75,0.01,,---,0.32,VWS V14.01,2013-03-07 22:30:00,
2013-03-07 17:40:00,37.1,30.2,30.42,West,275,1.0,2.0,76,0.01,,---,0.32,VWS V14.01,2013-03-07 22:40:00,
2013-03-07 17:50:00,36.9,30.0,30.42,SW,217,0.0,2.0,76,0.01,,---,0.32,VWS V14.01,2013-03-07 22:50:00,
2013-03-07 18:00:00,36.7,29.9,30.42,WSW,255,0.0,3.0,76,0.00,,---,0.32,VWS V14.01,2013-03-07 23:00:00,
2013-03-07 18:10:00,36.5,30.3,30.42,SSE,153,0.0,2.0,78,0.01,,---,0.33,VWS V14.01,2013-03-07 23:10:00,
2013-03-07 18:20:00,36.3,29.8,30.42,SSE,147,0.0,2.0,77,0.01,,---,0.33,VWS V14.01,2013-03-07 23:20:00,
2013-03-07 18:30:00,36.1,29.9,30.43,SW,220,0.0,2.0,78,0.01,,---,0.33,VWS V14.01,2013-03-07 23:30:00,
2013-03-07 18:40:00,35.9,29.7,30.43,West,280,0.0,2.0,78,0.01,,---,0.33,VWS V14.01,2013-03-07 23:40:00,
2013-03-07 18:50:00,35.8,29.3,30.43,South,172,1.0,2.0,77,0.01,,---,0.33,VWS V14.01,2013-03-07 23:50:00,
2013-03-07 19:00:00,35.6,28.8,30.43,WNW,286,0.0,3.0,76,0.01,,---,0.33,VWS V14.01,2013-03-08 00:00:00,
2013-03-07 19:10:00,35.3,29.1,30.43,WNW,286,0.0,0.0,78,0.01,,---,0.33,VWS V14.01,2013-03-08 00:10:00,
2013-03-07 19:20:00,35.0,29.2,30.43,WNW,286,0.0,0.0,79,0.00,,---,0.33,VWS V14.01,2013-03-08 00:20:00,
2013-03-07 19:30:00,34.7,28.9,30.44,WNW,286,0.0,0.0,79,0.00,,---,0.33,VWS V14.01,2013-03-08 00:30:00,
2013-03-07 19:40:00,34.5,28.4,30.44,WNW,286,0.0,1.0,78,0.00,,---,0.33,VWS V14.01,2013-03-08 00:40:00,
2013-03-07 19:50:00,34.3,29.1,30.44,WNW,286,0.0,1.0,81,0.00,,---,0.33,VWS V14.01,2013-03-08 00:50:00,
2013-03-07 20:00:00,34.2,29.3,30.44,WNW,286,0.0,1.0,82,0.00,,---,0.33,VWS V14.01,2013-03-08 01:00:00,
2013-03-07 20:10:00,34.0,29.1,30.45,WNW,286,0.0,0.0,82,0.00,,---,0.33,VWS V14.01,2013-03-08 01:10:00,
2013-03-07 20:20:00,33.9,29.3,30.45,WNW,286,0.0,1.0,83,0.00,,---,0.33,VWS V14.01,2013-03-08 01:20:00,
2013-03-07 20:30:00,33.9,29.0,30.45,WNW,286,0.0,1.0,82,0.00,,---,0.33,VWS V14.01,2013-03-08 01:30:00,
2013-03-07 20:40:00,33.8,29.2,30.45,WNW,286,0.0,0.0,83,0.00,,---,0.33,VWS V14.01,2013-03-08 01:40:00,
2013-03-07 20:50:00,33.7,29.1,30.45,WNW,286,0.0,0.0,83,0.00,,---,0.33,VWS V14.01,2013-03-08 01:50:00,
2013-03-07 21:00:00,33.7,29.7,30.45,WNW,286,0.0,1.0,85,0.00,,---,0.33,VWS V14.01,2013-03-08 02:00:00,
2013-03-07 21:10:00,33.6,28.4,30.45,WNW,286,1.0,1.0,81,0.00,,---,0.33,VWS V14.01,2013-03-08 02:10:00,
2013-03-07 21:20:00,34.0,27.9,30.45,WNW,286,1.0,1.0,78,0.00,,---,0.33,VWS V14.01,2013-03-08 02:20:00,
2013-03-07 21:30:00,34.2,27.4,30.45,WNW,286,1.0,2.0,76,0.00,,---,0.33,VWS V14.01,2013-03-08 02:30:00,
2013-03-07 21:40:00,34.4,27.6,30.45,WNW,286,1.0,2.0,76,0.00,,---,0.33,VWS V14.01,2013-03-08 02:40:00,
2013-03-07 21:50:00,34.3,27.9,30.44,WNW,286,1.0,1.0,77,0.00,,---,0.33,VWS V14.01,2013-03-08 02:50:00,
2013-03-07 22:00:00,34.0,29.1,30.45,WNW,286,0.0,2.0,82,0.00,,---,0.33,VWS V14.01,2013-03-08 03:00:00,
2013-03-07 22:10:00,33.6,29.6,30.44,North,10,0.0,2.0,85,0.00,,---,0.33,VWS V14.01,2013-03-08 03:10:00,
2013-03-07 22:20:00,33.4,28.5,30.44,North,10,0.0,2.0,82,0.00,,---,0.33,VWS V14.01,2013-03-08 03:20:00,
2013-03-07 22:30:00,33.3,28.4,30.45,North,10,0.0,0.0,82,0.00,,---,0.33,VWS V14.01,2013-03-08 03:30:00,
2013-03-07 22:40:00,33.4,27.6,30.44,North,10,0.0,1.0,79,0.00,,---,0.33,VWS V14.01,2013-03-08 03:40:00,
2013-03-07 22:50:00,33.2,29.5,30.44,North,10,0.0,1.0,86,0.00,,---,0.33,VWS V14.01,2013-03-08 03:50:00,
2013-03-07 23:00:00,32.8,28.5,30.45,North,10,0.0,2.0,84,0.00,,---,0.33,VWS V14.01,2013-03-08 04:00:00,
2013-03-07 23:10:00,32.7,28.1,30.44,North,10,0.0,1.0,83,0.00,,---,0.33,VWS V14.01,2013-03-08 04:10:00,
2013-03-07 23:20:00,32.6,28.3,30.44,NNE,18,0.0,2.0,84,0.00,,---,0.33,VWS V14.01,2013-03-08 04:20:00,
2013-03-07 23:30:00,32.5,28.2,30.44,NNE,18,0.0,0.0,84,0.00,,---,0.33,VWS V14.01,2013-03-08 04:30:00,
2013-03-07 23:40:00,32.3,27.7,30.44,NNE,18,0.0,1.0,83,0.00,,---,0.33,VWS V14.01,2013-03-08 04:40:00,
2013-03-07 23:50:00,32.4,27.5,30.44,NNE,18,0.0,0.0,82,0.00,,---,0.33,VWS V14.01,2013-03-08 04:50:00,